Regional Weather Roundup
Issued by NWS Albany, NY

Home | Current Version | Previous Version | Text Only | Print | Product List | Glossary On
Versions: 1 2 3 4 5 6 7 8 9 10 11 12 13 14 15 16 17 18 19 20 21 22 23 24 25 26 27 28 29 30 31 32 33 34 35 36 37 38 39 40 41 42 43 44 45 46 47 48 49 50
145
ASUS41 KALY 111710
RWRALY

NEW YORK STATE HOURLY WEATHER ROUNDUP
NATIONAL WEATHER SERVICE ALBANY NY
1200 PM EST THU FEB 11 2016

NOTE: "FAIR" INDICATES FEW OR NO CLOUDS BELOW 12,000 FEET WITH NO
SIGNIFICANT WEATHER AND/OR NO OBSTRUCTIONS TO VISIBILITY.

NYZ032-033-038>043-046>054-057>066-NYZ062>081-111800-
EAST


CITY           SKY/WX    TMP DP  RH WIND       PRES   REMARKS
ALBANY         PTSUNNY   21   4  47 W21G30    29.85R WCI   5
GLENS FALLS    PTSUNNY   22   0  38 W13G30    29.78S WCI  10
POUGHKEEPSIE   PTSUNNY   24   2  38 W22G30    29.87S WCI   9
NEWBURGH       PTSUNNY   21   5  49 NW23G35   29.86S WCI   5
MONTGOMERY     CLOUDY    23   0  36 NW20G35   29.86F WCI   8
WHITE PLAINS   CLOUDY    22   1  40 W23G35    29.85F WCI   6
ISLIP          CLOUDY    24   1  36 W21G35    29.86S WCI   9
NEW YORK CITY  CLOUDY    25   0  33 W17G33    29.91S WCI  12
CENTRAL PARK   CLOUDY    26   0  32 NW7       29.92F WCI  18
$$

NYZ005>009-017-018-044>046-055-056-111800-
CENTRAL


CITY           SKY/WX    TMP DP  RH WIND       PRES   REMARKS
FULTON         HVY SNOW  11   4  73 W17G26    29.95R VSB 1/4 WCI  -6
SYRACUSE       SNOW      10   5  80 W18G29    29.94R VSB 1/2 WCI  -8
ROME           SNOW      10   6  84 W15       29.90R VSB 1/4 WCI  -7
ELMIRA         PTSUNNY   14  -1  51 W16G29    29.94S WCI  -2
BINGHAMTON     FLURRIES  11  -1  58 W21G32    29.82R WCI  -8
MONTICELLO     CLOUDY    16   5  62 W17G29    29.80S WCI   0
$$

NYZ026>034-041>043-111800-
NORTH


CITY           SKY/WX    TMP DP  RH WIND       PRES   REMARKS
WATERTOWN      PTSUNNY    5  -6  60 NW13      29.94S WCI -12
FORT DRUM      NOT AVBL
MASSENA        CLOUDY     3  -7  63 W17       29.91R HAZE    WCI -17
SARANAC LAKE   CLOUDY     7  -2  66 W13G18    29.67R WCI  -9
PLATTSBURGH    CLOUDY    16   0  49 NW7G21    29.78S WCI   6
$$

NYZ001>004-010>016-019>021-111800-
WEST


CITY           SKY/WX    TMP DP  RH WIND       PRES   REMARKS
NIAGARA FALLS  PTSUNNY   13  -1  54 W17       30.06R WCI  -4
BUFFALO        PTSUNNY   12  -2  53 NW20      30.04R WCI  -6
DUNKIRK        CLOUDY    13   3  64 NW13G21   30.09R WCI  -2
JAMESTOWN      CLOUDY    10   1  67 W18G24    29.96S WCI  -8
WELLSVILLE     LGT SNOW   9  -1  64 W29G40    29.89S VSB 3/4 WCI -13
ROCHESTER      LGT SNOW  11   2  67 NW21G35   30.01R BLWGSNOWWCI  -8
PENN YAN       FLURRIES  13   2  61 W14G24    29.94S WCI  -2
$$

             KEY
       WCI = WIND CHILL INDEX
       VSB = VISIBILITY
       HX  = HEAT INDEX
$$




USA.gov is the U.S. government's official web portal to all federal, state and local government web resources and services.